{"data":{"norad_id":59446,"epoch":"2026-09-22T00:27:09.326016Z","epoch_age_seconds":132261,"freshness":"FRESH","line1":"1 59446U 24066E   26265.01885794  .00000861  00000+0  87950-4 0  9996","line2":"2 59446  45.6090 136.6402 0003075 208.4497 151.6217 14.99384374134367","mean_motion":14.99384374,"eccentricity":0.0003075,"inclination_deg":45.609,"raan_deg":136.6402,"arg_perigee_deg":208.4497,"mean_anomaly_deg":151.6217,"bstar":8.795e-5,"rev_number":13436,"period_min":96.039416241109,"perigee_km":566.66105489983,"apogee_km":570.9334194557,"semimajor_km":6946.9342371778,"source":"CELESTRAK","updated_at":"2026-09-23T09:00:19.374861Z"}}